Regional Weather Roundup
Issued by NWS

Home | Current Version | Previous Version | Graphics & Text | Print | Product List | Glossary On
Versions: 1 2 3 4 5 6 7 8 9 10 11 12 13 14 15 16 17 18 19 20 21 22 23 24 25 26 27 28 29 30 31 32 33 34 35 36 37 38 39 40 41 42 43 44 45 46 47 48 49 50
000
ASUS45 KBOI 030610
RWRID

IDAHO REGIONAL WEATHER ROUNDUP
NATIONAL WEATHER SERVICE BOISE ID
1200 AM MDT WED JUN 03 2015

NOTE: "FAIR" INDICATES FEW OR NO CLOUDS BELOW 12000 FEET
WITH NO SIGNIFICANT WEATHER AND/OR OBSTRUCTIONS TO VISIBILITY

IDZ012-014-030700-
SOUTHWEST IDAHO


CITY           SKY/WX    TMP DP  RH WIND       PRES   REMARKS
BOISE          CLEAR     59  44  57 NW6       29.97S
CALDWELL       CLEAR     55  43  62 W7        30.01S
MOUNTAIN HOME  CLEAR     57  48  72 NW10      29.97R
$$

IDZ016-017-030700-
SOUTHCENTRAL IDAHO


CITY           SKY/WX    TMP DP  RH WIND       PRES   REMARKS
BURLEY         CLEAR     55  45  68 SW5       29.96S
JEROME         CLEAR     59  39  47 CALM      29.97S
TWIN FALLS     CLEAR     60  40  47 SW10      29.96R
$$

IDZ019>023-030700-
SOUTHEAST IDAHO


CITY           SKY/WX    TMP DP  RH WIND       PRES   REMARKS
IDAHO FALLS    CLEAR     59  44  57 S9        29.99S
POCATELLO      CLOUDY    58  47  66 S7        29.99S
REXBURG        CLEAR     57  41  55 S13       29.97F
$$

IDZ006-010-011-018-031-032-030700-
CENTRAL IDAHO MOUNTAINS


CITY           SKY/WX    TMP DP  RH WIND       PRES   REMARKS
MCCALL         CLOUDY    46  43  89 SE5       30.05S
HAILEY         PTCLDY    52  37  58 NW12      30.05R
STANLEY          N/A     41  35  79 CALM      30.10R
SALMON           N/A     52  43  71 SW5       30.02R
CHALLIS        PTCLDY    51  39  63 NW9       30.02S
$$

IDZ002-004-006-007-026-030700-
NORTHERN IDAHO


CITY           SKY/WX    TMP DP  RH WIND       PRES   REMARKS
LEWISTON       PTCLDY    57  50  77 VRB3      29.98S
LOWELL           N/A    N/A N/A N/A CALM      30.05R
COEUR D`ALENE  CLOUDY    55  50  82 CALM      29.95R
MULLAN PASS    PTCLDY    42  39  89 SW6       30.05S
$$


USA.gov is the U.S. government's official web portal to all federal, state and local government web resources and services.